KC3BBT-13 Weather Reports


time (UTC)temp
C
wind
direction
speed
KPH
gust
KPH
rain 1hr
cm
rain 24hr
cm
rain mn
cm
humidity
%
barometer
mb
20260505112141 16 0 0.0 4.8 0.00 0.00 0.00 60 1013.2
20260505110846 16 0 0.0 9.7 0.00 0.00 0.00 60 1013.0
20260505110726 16 0 0.0 9.7 0.00 0.00 0.00 60 1013.0
20260505101411 15 230 3.2 11.3 0.00 0.00 0.00 61 1012.5
20260505100316 15 0 0.0 6.4 0.00 0.00 0.00 62 1012.5
20260505095926 15 0 0.0 6.4 0.00 0.00 0.00 62 1012.5
20260505094550 15 0 0.0 8.0 0.00 0.00 0.00 62 1012.4
20260505093159 15 0 0.0 4.8 0.00 0.00 0.00 62 1012.3
20260505091955 15 0 0.0 0.0 0.00 0.00 0.00 62 1012.2
20260505090631 16 142 8.0 8.0 0.00 0.00 0.00 62 1012.0
20260505085414 16 0 0.0 0.0 0.00 0.00 0.00 63 1012.2
20260505085246 16 0 0.0 0.0 0.00 0.00 0.00 63 1012.2
20260505083946 16 0 0.0 4.8 0.00 0.00 0.00 63 1012.3
20260505082546 16 0 0.0 8.0 0.00 0.00 0.00 63 1012.3
20260505082448 16 0 0.0 8.0 0.00 0.00 0.00 63 1012.3
20260505081314 16 0 0.0 8.0 0.00 0.00 0.00 62 1012.2
20260505081131 16 0 0.0 8.0 0.00 0.00 0.00 62 1012.2
20260505075907 16 140 6.4 8.0 0.00 0.00 0.00 62 1012.1
20260505074611 16 0 0.0 4.8 0.00 0.00 0.00 62 1012.1
20260505073346 16 0 0.0 6.4 0.00 0.00 0.00 61 1012.1
20260505072124 16 0 0.0 8.0 0.00 0.00 0.00 61 1012.0
20260505071901 16 0 0.0 8.0 0.00 0.00 0.00 61 1012.0
20260505070436 16 0 0.0 0.0 0.00 0.00 0.00 60 1012.0
20260505065442 16 0 0.0 0.0 0.00 0.00 0.00 60 1011.9
20260505065146 16 0 0.0 0.0 0.00 0.00 0.00 60 1011.9
20260505064032 16 0 0.0 1.6 0.00 0.00 0.00 60 1011.8
20260505063841 16 0 0.0 1.6 0.00 0.00 0.00 60 1011.8
20260505062441 16 0 0.0 4.8 0.00 0.00 0.00 61 1011.9
20260505061130 16 0 0.0 0.0 0.00 0.00 0.00 62 1011.9
20260505061022 16 0 0.0 0.0 0.00 0.00 0.00 62 1011.9
20260505055726 16 0 0.0 0.0 0.00 0.00 0.00 62 1011.9
20260505054301 16 0 0.0 0.0 0.00 0.00 0.00 61 1011.9
20260505052935 17 0 0.0 0.0 0.00 0.00 0.00 59 1011.9
20260505052818 17 0 0.0 0.0 0.00 0.00 0.00 59 1011.9
20260505051808 17 0 0.0 0.0 0.00 0.00 0.00 58 1012.0
20260505051601 17 0 0.0 0.0 0.00 0.00 0.00 58 1012.0
20260505050605 17 0 0.0 0.0 0.00 0.00 0.00 57 1012.1
20260505050324 17 0 0.0 0.0 0.00 0.00 0.00 57 1012.1
20260505041156 18 0 0.0 1.6 0.00 0.00 0.00 53 1012.1
20260505035716 18 0 0.0 0.0 0.00 0.00 0.00 52 1012.0
20260505034427 18 0 0.0 0.0 0.00 0.00 0.00 51 1011.9
20260505033204 19 0 0.0 1.6 0.00 0.00 0.00 51 1011.9
20260505031806 19 0 0.0 3.2 0.00 0.00 0.00 50 1012.0
20260505030531 19 0 0.0 0.0 0.00 0.00 0.00 50 1011.9
20260505025316 19 0 0.0 4.8 0.00 0.00 0.00 49 1011.8
20260505024031 20 0 0.0 0.0 0.00 0.00 0.00 49 1011.9
20260505022533 20 229 3.2 3.2 0.00 0.00 0.00 48 1011.9
20260505021156 20 0 0.0 3.2 0.00 0.00 0.00 48 1011.8
20260505020121 20 177 1.6 3.2 0.00 0.00 0.00 47 1011.7
20260505015746 20 177 1.6 3.2 0.00 0.00 0.00 47 1011.7
20260505014307 20 0 0.0 1.6 0.00 0.00 0.00 46 1011.7
20260505013002 21 154 1.6 6.4 0.00 0.00 0.00 44 1011.4
20260505011736 21 0 0.0 0.0 0.00 0.00 0.00 44 1011.4
20260505010526 21 0 0.0 0.0 0.00 0.00 0.00 44 1011.2
20260505005141 21 0 0.0 0.0 0.00 0.00 0.00 43 1011.2
20260505003942 21 198 1.6 9.7 0.00 0.00 0.00 42 1011.1
20260505002621 22 0 0.0 1.6 0.00 0.00 0.00 42 1011.1
20260505001903 22 0 0.0 8.0 0.00 0.00 0.00 41 1011.0
20260505001346 22 0 0.0 8.0 0.00 0.00 0.00 41 1011.0
20260505000126 22 0 0.0 6.4 0.00 0.00 0.00 41 1011.0
20260504235034 22 0 0.0 11.3 0.00 0.00 0.00 43 1011.0
20260504234847 22 0 0.0 11.3 0.00 0.00 0.00 43 1011.0
20260504233607 22 0 0.0 0.0 0.00 0.00 0.00 38 1010.9
20260504232215 22 0 0.0 6.4 0.00 0.00 0.00 38 1010.8
20260504230941 23 0 0.0 6.4 0.00 0.00 0.00 37 1010.8
20260504230030 23 213 9.7 14.5 0.00 0.00 0.00 37 1010.8
20260504225637 23 213 9.7 14.5 0.00 0.00 0.00 37 1010.8
20260504224146 23 195 6.4 17.7 0.00 0.00 0.00 36 1010.8
20260504222750 23 147 1.6 16.1 0.00 0.00 0.00 36 1010.9
20260504221341 23 282 3.2 20.9 0.00 0.00 0.00 35 1010.8
20260504215846 23 223 4.8 14.5 0.00 0.00 0.00 36 1010.8
20260504214441 24 0 0.0 19.3 0.00 0.00 0.00 33 1010.8
20260504213218 25 215 4.8 22.5 0.00 0.00 0.00 32 1010.8
20260504211751 24 254 11.3 22.5 0.00 0.00 0.00 32 1010.8
20260504210446 25 194 11.3 11.3 0.00 0.00 0.00 31 1010.8
20260504205246 10 0 0.0 0.0 0.00 0.00 0.00 57 1016.4
20260504203921 10 0 0.0 0.0 0.00 0.00 0.00 57 1016.4
20260504202501 10 0 0.0 0.0 0.00 0.00 0.00 57 1016.4
20260504201106 10 0 0.0 0.0 0.00 0.00 0.00 57 1016.4
20260504200748 10 0 0.0 0.0 0.00 0.00 0.00 57 1016.4
20260504195733 10 0 0.0 0.0 0.00 0.00 0.00 57 1016.4
20260504194436 10 0 0.0 0.0 0.00 0.00 0.00 57 1016.4
20260504193100 10 0 0.0 0.0 0.00 0.00 0.00 57 1016.4
20260504191626 10 0 0.0 0.0 0.00 0.00 0.00 57 1016.4
20260504190351 10 0 0.0 0.0 0.00 0.00 0.00 57 1016.4
20260504185018 10 0 0.0 0.0 0.00 0.00 0.00 57 1016.4
20260504184914 10 0 0.0 0.0 0.00 0.00 0.00 57 1016.4
20260504183511 10 0 0.0 0.0 0.00 0.00 0.00 57 1016.4
20260504182256 10 0 0.0 0.0 0.00 0.00 0.00 57 1016.4
20260504180911 10 0 0.0 0.0 0.00 0.00 0.00 57 1016.4
20260504180025 10 0 0.0 0.0 0.00 0.00 0.00 57 1016.4
20260504175551 10 0 0.0 0.0 0.00 0.00 0.00 57 1016.4
20260504174356 10 0 0.0 0.0 0.00 0.00 0.00 57 1016.4
20260504173033 10 0 0.0 0.0 0.00 0.00 0.00 57 1016.4
20260504171855 10 0 0.0 0.0 0.00 0.00 0.00 57 1016.4
20260504171721 10 0 0.0 0.0 0.00 0.00 0.00 57 1016.4
20260504170401 10 0 0.0 0.0 0.00 0.00 0.00 57 1016.4
20260504151146 10 0 0.0 0.0 0.00 0.00 0.00 57 1016.4
20260504140146 10 0 0.0 0.0 0.00 0.00 0.00 57 1016.4
20260504130611 10 0 0.0 0.0 0.00 0.00 0.00 57 1016.4